Date String (YYYY-MM-DD hh:mm:ss) UTC,Instrument flags,Ambient pressure (hPa),Sample flow (lpm),Bypass flow (lpm),Sample temperature (°C),Ambient temperature (°C),ASC tube jacket temperature (°C),LED temperature (°C),Box temperature (°C),Sample RH (%),Span deviation,Mass concentration (μg/m³),Mass concentration (μg/m³),Mass concentration (μg/m³)
DateTimeUTC,F1_M11,P_M11,Q1_M11,Q2_M11,T1_M11,T2_M11,T3_M11,T4_M11,T5_M11,U1_M11,ZSPAN_M11,X0_M11,X2_M11,X1_M11
2022-12-26 14:00:00,,0830.9,4.97,0.00,21.0,18.9,00.0,30.2,22.4,19.4,0000.0,0007.87,0003.73,0003.54
2022-12-26 14:01:00,,0830.9,4.98,0.00,21.0,18.8,00.0,30.1,22.4,19.5,0000.0,0007.96,0003.71,0003.53
2022-12-26 14:02:00,,0830.9,5.01,0.00,20.9,18.8,00.0,30.1,22.3,19.5,0000.0,0007.94,0003.71,0003.53
2022-12-26 14:03:00,,0830.9,5.04,0.00,20.9,18.9,00.0,30.1,22.3,19.5,0000.0,0007.97,0003.72,0003.53
2022-12-26 14:04:00,,0831.0,4.98,0.00,20.9,20.1,00.0,30.0,22.6,19.4,0000.0,0007.96,0003.72,0003.51
2022-12-26 14:05:00,,0831.0,4.97,0.00,21.1,21.2,00.0,29.9,23.0,19.3,0000.0,0006.97,0003.72,0003.52
2022-12-26 14:06:00,,0831.1,5.03,0.00,21.2,21.2,00.0,30.0,23.0,19.1,0000.0,0006.58,0003.71,0003.51
2022-12-26 14:07:00,,0831.0,4.98,0.00,21.2,20.6,00.0,30.0,22.9,19.1,0000.0,0005.84,0003.68,0003.49
2022-12-26 14:08:00,,0831.0,4.97,0.00,21.1,20.2,00.0,30.0,22.8,19.1,0000.0,0005.84,0003.69,0003.49
2022-12-26 14:09:00,,0831.1,5.02,0.00,21.1,19.9,00.0,30.0,22.7,19.2,0000.0,0005.81,0003.68,0003.49
2022-12-26 14:10:00,,0831.1,5.02,0.00,21.1,19.6,00.0,30.0,22.6,19.2,0000.0,0005.87,0003.69,0003.49
2022-12-26 14:11:00,,0831.1,5.02,0.00,21.0,19.4,00.0,30.0,22.6,19.2,0000.0,0005.13,0003.69,0003.48
2022-12-26 14:12:00,,0831.1,4.98,0.00,21.0,19.3,00.0,30.0,22.6,19.3,0000.0,0004.96,0003.68,0003.49
2022-12-26 14:13:00,,0831.1,4.97,0.00,21.0,19.3,00.0,30.0,22.5,19.3,0000.0,0004.92,0003.67,0003.48
2022-12-26 14:14:00,,0831.0,5.01,0.00,20.9,19.2,00.0,30.0,22.5,19.3,0000.0,0005.00,0003.68,0003.49
2022-12-26 14:15:00,,0831.0,5.01,0.00,20.9,19.2,00.0,30.0,22.5,19.4,0000.0,0005.02,0003.70,0003.50
2022-12-26 14:16:00,,0831.0,4.99,0.00,20.9,19.2,00.0,30.0,22.5,19.4,0000.0,0004.94,0003.70,0003.51
2022-12-26 14:17:00,,0831.0,5.00,0.00,20.9,19.1,00.0,29.9,22.5,19.4,0000.0,0004.91,0003.71,0003.53
2022-12-26 14:18:00,,0831.0,4.96,0.00,20.9,19.3,00.0,29.9,22.5,19.5,0000.0,0005.05,0003.72,0003.54
2022-12-26 14:19:00,,0831.0,5.01,0.00,21.0,20.5,00.0,29.8,22.8,19.4,0000.0,0005.17,0003.75,0003.56
2022-12-26 14:20:00,,0831.1,5.03,0.00,21.1,21.6,00.0,29.8,23.1,19.3,0000.0,0005.24,0003.78,0003.59
2022-12-26 14:21:00,,0831.0,4.96,0.00,21.2,21.4,00.0,29.9,23.1,19.2,0000.0,0005.43,0003.81,0003.60
2022-12-26 14:22:00,,0831.0,5.00,0.00,21.2,20.9,00.0,30.0,23.1,19.2,0000.0,0005.45,0003.83,0003.62
2022-12-26 14:23:00,,0830.9,5.02,0.00,21.2,20.5,00.0,30.0,23.0,19.2,0000.0,0005.47,0003.84,0003.65
2022-12-26 14:24:00,,0830.9,5.01,0.00,21.2,20.1,00.0,30.0,22.8,19.3,0000.0,0005.52,0003.86,0003.67
2022-12-26 14:25:00,,0830.9,4.98,0.00,21.1,19.7,00.0,30.0,22.7,19.4,0000.0,0005.48,0003.88,0003.69
2022-12-26 14:26:00,,0830.9,4.97,0.00,21.1,19.5,00.0,30.0,22.6,19.5,0000.0,0005.54,0003.91,0003.73
2022-12-26 14:27:00,,0831.0,5.00,0.00,21.0,19.2,00.0,30.0,22.5,19.6,0000.0,0005.67,0003.95,0003.75
2022-12-26 14:28:00,,0831.0,5.01,0.00,21.0,19.0,00.0,30.0,22.4,19.7,0000.0,0005.76,0003.98,0003.77
2022-12-26 14:29:00,,0831.0,5.01,0.00,20.9,18.9,00.0,30.0,22.4,19.9,0000.0,0006.19,0004.01,0003.81
2022-12-26 14:30:00,,0831.1,4.98,0.00,20.8,18.8,00.0,29.9,22.3,19.9,0000.0,0006.51,0004.02,0003.84
2022-12-26 14:31:00,,0831.2,4.98,0.00,20.8,18.7,00.0,29.9,22.2,20.0,0000.0,0006.56,0004.05,0003.87
2022-12-26 14:32:00,,0831.2,4.97,0.00,20.7,18.5,00.0,29.9,22.1,20.1,0000.0,0006.47,0004.07,0003.89
2022-12-26 14:33:00,,0831.2,5.02,0.00,20.7,19.5,00.0,29.8,22.3,20.1,0000.0,0006.62,0004.11,0003.92
2022-12-26 14:34:00,,0831.1,5.01,0.00,20.9,21.0,00.0,29.7,22.7,19.9,0000.0,0006.80,0004.16,0003.94
2022-12-26 14:35:00,,0831.1,4.96,0.00,21.0,21.3,00.0,29.8,22.9,19.8,0000.0,0007.20,0004.21,0003.95
2022-12-26 14:36:00,,0831.0,5.02,0.00,21.0,20.8,00.0,29.8,22.8,19.6,0000.0,0007.32,0004.22,0003.96
2022-12-26 14:37:00,,0831.0,5.03,0.00,21.0,20.2,00.0,29.9,22.7,19.6,0000.0,0007.33,0004.23,0003.97
2022-12-26 14:38:00,,0831.1,4.99,0.00,21.0,19.8,00.0,29.9,22.6,19.7,0000.0,0007.32,0004.23,0003.97
2022-12-26 14:39:00,,0831.1,4.97,0.00,20.9,19.5,00.0,29.9,22.5,19.8,0000.0,0007.35,0004.25,0003.99
2022-12-26 14:40:00,,0831.2,5.03,0.00,20.9,19.2,00.0,29.9,22.4,19.9,0000.0,0007.11,0004.26,0003.98
2022-12-26 14:41:00,,0831.2,5.03,0.00,20.8,19.1,00.0,29.8,22.3,19.9,0000.0,0006.84,0004.27,0003.99
2022-12-26 14:42:00,,0831.2,5.01,0.00,20.8,19.0,00.0,29.8,22.3,20.0,0000.0,0006.87,0004.27,0004.00
2022-12-26 14:43:00,,0831.2,4.97,0.00,20.8,18.9,00.0,29.8,22.2,20.1,0000.0,0007.12,0004.26,0004.00
2022-12-26 14:44:00,,0831.2,4.99,0.00,20.7,18.8,00.0,29.8,22.2,20.1,0000.0,0007.08,0004.26,0003.99
2022-12-26 14:45:00,,0831.2,5.04,0.00,20.7,18.8,00.0,29.8,22.1,20.1,0000.0,0006.97,0004.24,0003.99
2022-12-26 14:46:00,,0831.2,5.03,0.00,20.6,18.8,00.0,29.7,22.1,20.1,0000.0,0006.76,0004.24,0004.01
2022-12-26 14:47:00,,0831.2,4.99,0.00,20.7,19.8,00.0,29.7,22.4,20.1,0000.0,0006.58,0004.23,0004.00
2022-12-26 14:48:00,,0831.1,4.98,0.00,20.8,21.1,00.0,29.6,22.8,19.9,0000.0,0006.79,0004.24,0004.01
2022-12-26 14:49:00,,0831.1,5.04,0.00,21.0,21.2,00.0,29.7,22.9,19.8,0000.0,0006.85,0004.24,0004.01
2022-12-26 14:50:00,,0831.0,4.95,0.00,21.0,20.7,00.0,29.8,22.8,19.7,0000.0,0007.00,0004.25,0004.02
2022-12-26 14:51:00,,0831.0,5.02,0.00,21.0,20.2,00.0,29.8,22.7,19.7,0000.0,0007.02,0004.26,0004.03
2022-12-26 14:52:00,,0831.0,5.03,0.00,20.9,19.9,00.0,29.8,22.6,19.7,0000.0,0007.04,0004.26,0004.04
2022-12-26 14:53:00,,0831.1,5.01,0.00,20.9,19.7,00.0,29.8,22.5,19.7,0000.0,0007.09,0004.26,0004.03
2022-12-26 14:54:00,,0831.0,4.97,0.00,20.9,19.5,00.0,29.8,22.6,19.7,0000.0,0006.84,0004.28,0004.04
2022-12-26 14:55:00,,0831.0,4.99,0.00,20.9,19.4,00.0,29.8,22.5,19.7,0000.0,0006.92,0004.30,0004.06
2022-12-26 14:56:00,,0831.1,5.03,0.00,20.9,19.4,00.0,29.8,22.5,19.6,0000.0,0007.06,0004.33,0004.07
2022-12-26 14:57:00,,0831.1,5.01,0.00,20.9,19.3,00.0,29.8,22.5,19.6,0000.0,0007.17,0004.33,0004.07
2022-12-26 14:58:00,,0831.1,4.96,0.00,20.9,19.3,00.0,29.8,22.5,19.6,0000.0,0007.34,0004.37,0004.08
2022-12-26 14:59:00,,0831.1,5.00,0.00,20.9,19.3,00.0,29.8,22.5,19.6,0000.0,0007.25,0004.39,0004.10
